timestamp,surface_pressure_avg,surface_temp_avg,battery_voltage,lat,long
2020-03-25 00:09:01+00:00,359.2697,0.4,12.73,47.84626,-54.09684
2020-03-25 00:19:01+00:00,347.4946,0.4,12.65,47.84626,-54.09684
2020-03-25 00:29:01+00:00,351.4163,0.4,12.65,47.84626,-54.09684
2020-03-25 00:39:01+00:00,356.7697,0.4,12.65,47.84626,-54.09684
2020-03-25 00:49:01+00:00,351.2063,0.4,12.65,47.84626,-54.09684
2020-03-25 00:59:01+00:00,351.5497,0.4,12.65,47.84626,-54.09684
2020-03-25 01:09:01+00:00,358.2595,0.4,12.65,47.84626,-54.09684
2020-03-25 01:19:01+00:00,359.2496,0.4,12.65,47.84626,-54.09684
2020-03-25 01:29:01+00:00,351.3097,0.4,12.65,47.84626,-54.09684
2020-03-25 01:39:01+00:00,348.3279,0.4,12.65,47.84626,-54.09684
2020-03-25 01:49:01+00:00,352.463,0.4,12.65,47.84626,-54.09684
2020-03-25 01:59:01+00:00,341.2546,0.4,12.65,47.84626,-54.09684
2020-03-25 02:09:01+00:00,334.0696,0.4,12.65,47.84626,-54.09684
2020-03-25 02:19:01+00:00,335.4529,0.4,12.65,47.84626,-54.09684
2020-03-25 02:29:01+00:00,331.9529,0.4,12.65,47.84626,-54.09684
2020-03-25 02:39:01+00:00,319.2897,0.39,12.65,47.84626,-54.09684
2020-03-25 02:49:01+00:00,311.9913,0.34,12.65,47.84626,-54.09684
2020-03-25 02:59:01+00:00,314.7097,0.35,12.65,47.84626,-54.09684
2020-03-25 03:09:01+00:00,306.288,0.31,12.65,47.84626,-54.09684
2020-03-25 03:19:01+00:00,296.8113,0.3,12.57,47.84626,-54.09684
2020-03-25 03:29:01+00:00,292.5779,0.3,12.57,47.84626,-54.09684
2020-03-25 03:39:01+00:00,289.5964,0.35,12.57,47.84626,-54.09684
2020-03-25 03:49:01+00:00,278.5514,0.26,12.57,47.84626,-54.09684
2020-03-25 03:59:01+00:00,271.2598,0.2,12.57,47.84626,-54.09684
2020-03-25 04:09:01+00:00,267.5447,0.2,12.57,47.84626,-54.09684
2020-03-25 04:19:01+00:00,257.0247,0.2,12.57,47.84626,-54.09684
2020-03-25 04:29:01+00:00,242.3231,0.12,12.57,47.84626,-54.09684
2020-03-25 04:39:01+00:00,234.5031,0.1,12.57,47.84626,-54.09684
2020-03-25 04:49:01+00:00,232.8031,0.16,12.57,47.84626,-54.09684
2020-03-25 04:59:01+00:00,218.8582,0.19,12.57,47.84626,-54.09684
2020-03-25 05:09:01+00:00,203.7981,0.2,12.57,47.84626,-54.09684
2020-03-25 05:19:01+00:00,201.2031,0.19,12.57,47.84626,-54.09684
2020-03-25 05:29:01+00:00,199.6414,0.1,12.57,47.84626,-54.09684
2020-03-25 05:39:01+00:00,189.3481,0.1,12.57,47.84626,-54.09684
2020-03-25 05:49:01+00:00,182.4148,0.1,12.57,47.84626,-54.09684
2020-03-25 05:59:01+00:00,187.9965,0.1,12.57,47.84626,-54.09684
2020-03-25 06:09:01+00:00,188.9648,0.1,12.57,47.84626,-54.09684
2020-03-25 06:19:01+00:00,181.2832,0.1,12.49,47.84626,-54.09684
2020-03-25 06:29:01+00:00,180.3948,0.1,12.49,47.84626,-54.09684
2020-03-25 06:39:01+00:00,183.8848,0.1,12.49,47.84626,-54.09684
2020-03-25 06:49:01+00:00,182.7548,0.1,12.49,47.84626,-54.09684
2020-03-25 06:59:01+00:00,183.9798,0.1,12.49,47.84626,-54.09684
2020-03-25 07:09:01+00:00,189.9615,0.09,12.49,47.84626,-54.09684
2020-03-25 07:19:01+00:00,196.7598,0.09,12.49,47.84626,-54.09684
2020-03-25 07:29:01+00:00,200.7648,0.1,12.49,47.84626,-54.09684
2020-03-25 07:39:01+00:00,205.5031,0.1,12.49,47.84626,-54.09684
2020-03-25 07:49:01+00:00,211.9981,0.1,12.49,47.84626,-54.09684
2020-03-25 07:59:01+00:00,220.0848,0.1,12.49,47.84626,-54.09684
2020-03-25 08:09:01+00:00,223.2715,0.1,12.49,47.84626,-54.09684
2020-03-25 08:19:01+00:00,225.1981,0.1,12.49,47.84626,-54.09684
2020-03-25 08:29:01+00:00,229.2514,0.1,12.49,47.84626,-54.09684
2020-03-25 08:39:01+00:00,233.4315,0.1,12.49,47.84626,-54.09684
2020-03-25 08:49:01+00:00,236.9981,0.1,12.49,47.84626,-54.09684
2020-03-25 08:59:01+00:00,240.3214,0.1,12.49,47.84626,-54.09684
2020-03-25 09:09:01+00:00,245.3698,0.08,12.49,47.84626,-54.09684
2020-03-25 09:19:01+00:00,251.343,0.09,12.49,47.84626,-54.09684
2020-03-25 09:29:01+00:00,255.0981,0.1,12.49,47.84626,-54.09684
2020-03-25 09:39:01+00:00,260.4897,0.1,12.49,47.84626,-54.09684
2020-03-25 09:49:01+00:00,269.558,0.1,12.49,47.84626,-54.09684
2020-03-25 09:59:01+00:00,276.7247,0.18,12.49,47.84626,-54.09684
2020-03-25 10:09:01+00:00,277.8881,0.13,12.49,47.84626,-54.09684
2020-03-25 10:19:01+00:00,282.9114,0.1,12.49,47.84626,-54.09684
2020-03-25 10:29:01+00:00,293.83799999999997,0.1,12.49,47.84626,-54.09684
2020-03-25 10:39:01+00:00,302.2448,0.1,12.49,47.84626,-54.09684
2020-03-25 10:49:01+00:00,302.2897,0.1,12.49,47.84626,-54.09684
2020-03-25 10:59:01+00:00,303.5797,0.1,12.49,47.84626,-54.09684
2020-03-25 11:09:01+00:00,308.5046,0.1,12.49,47.84626,-54.09684
2020-03-25 11:19:01+00:00,312.9063,0.1,12.49,47.84626,-54.09684
2020-03-25 11:29:01+00:00,312.4947,0.1,12.49,47.84626,-54.09684
2020-03-25 11:39:01+00:00,315.5314,0.1,12.49,47.84626,-54.09684
2020-03-25 11:49:01+00:00,320.7097,0.1,12.49,47.84626,-54.09684
2020-03-25 11:59:01+00:00,323.7097,0.13,12.49,47.84626,-54.09684
2020-03-25 12:09:01+00:00,324.8063,0.16,12.49,47.84626,-54.09684
2020-03-25 12:19:01+00:00,329.6147,0.18,12.49,47.84626,-54.09684
2020-03-25 12:29:01+00:00,334.2613,0.18,12.49,47.84626,-54.09684
2020-03-25 12:39:01+00:00,333.2480000000001,0.19,12.49,47.84626,-54.09684
2020-03-25 12:49:01+00:00,330.7163,0.19,12.49,47.84626,-54.09684
2020-03-25 12:59:01+00:00,335.3196,0.19,12.49,47.84626,-54.09684
2020-03-25 13:09:01+00:00,336.7546,0.2,12.49,47.84626,-54.09684
2020-03-25 13:19:01+00:00,334.6946,0.2,12.49,47.84626,-54.09684
2020-03-25 13:29:01+00:00,334.2247,0.2,12.49,47.84626,-54.09684
2020-03-25 13:39:01+00:00,331.6013,0.2,12.49,47.84626,-54.09684
2020-03-25 13:49:01+00:00,329.5863,0.19,12.49,47.84626,-54.09684
2020-03-25 13:59:01+00:00,328.0596,0.16,12.49,47.84626,-54.09684
2020-03-25 14:09:01+00:00,324.0996,0.16,12.49,47.84626,-54.09684
2020-03-25 14:19:01+00:00,317.9663,0.11,12.49,47.84626,-54.09684
2020-03-25 14:29:01+00:00,309.8297,0.19,12.49,47.84626,-54.09684
2020-03-25 14:39:01+00:00,302.8513,0.19,12.49,47.84626,-54.09684
2020-03-25 14:49:01+00:00,296.953,0.18,12.49,47.84626,-54.09684
2020-03-25 14:59:01+00:00,290.9197,0.19,12.49,47.84626,-54.09684
2020-03-25 15:09:01+00:00,285.8814,0.2,12.49,47.84626,-54.09684
2020-03-25 15:19:01+00:00,277.6764,-0.08,12.49,47.84626,-54.09684
2020-03-25 15:29:01+00:00,270.3698,-0.7,12.49,47.84626,-54.09684
2020-03-25 15:39:01+00:00,262.1314,-0.15,12.49,47.84626,-54.09684
2020-03-25 15:49:01+00:00,256.2747,0.2,12.49,47.84626,-54.09684
2020-03-25 15:59:01+00:00,247.7515,0.2,12.49,47.84626,-54.09684
2020-03-25 16:09:01+00:00,236.2148,0.15,12.49,47.84626,-54.09684
2020-03-25 16:19:01+00:00,230.2232,0.2,12.57,47.84626,-54.09684
2020-03-25 16:29:01+00:00,226.5781,0.2,12.57,47.84626,-54.09684
2020-03-25 16:39:01+00:00,216.9465,0.2,12.57,47.84626,-54.09684
2020-03-25 16:49:01+00:00,209.1047,0.2,12.57,47.84626,-54.09684
2020-03-25 16:59:01+00:00,207.7364,0.19,12.57,47.84626,-54.09684
2020-03-25 17:09:01+00:00,202.3031,0.18,12.57,47.84626,-54.09684
2020-03-25 17:19:01+00:00,195.7365,0.1,12.73,47.84626,-54.09684
2020-03-25 17:29:01+00:00,194.7865,0.1,12.73,47.84626,-54.09684
2020-03-25 17:39:01+00:00,189.1331,0.27,12.73,47.84626,-54.09684
2020-03-25 17:49:01+00:00,180.6848,0.2,12.73,47.84626,-54.09684
2020-03-25 17:59:01+00:00,174.9815,0.23,12.73,47.84626,-54.09684
2020-03-25 18:09:01+00:00,173.7165,0.27,12.73,47.84626,-54.09684
2020-03-25 18:19:01+00:00,173.6382,0.31,12.97,47.84626,-54.09684
2020-03-25 18:29:01+00:00,172.7898,0.4,12.97,47.84626,-54.09684
2020-03-25 18:39:01+00:00,170.9115,0.45,12.97,47.84626,-54.09684
2020-03-25 18:49:01+00:00,173.7798,0.4,12.97,47.84626,-54.09684
2020-03-25 18:59:01+00:00,181.3114,0.4,12.97,47.84626,-54.09684
2020-03-25 19:09:01+00:00,183.0248,0.49,12.97,47.84626,-54.09684
2020-03-25 19:19:01+00:00,184.2765,0.4,13.29,47.84626,-54.09684
2020-03-25 19:29:01+00:00,191.5848,0.4,13.29,47.84626,-54.09684
2020-03-25 19:39:01+00:00,200.0898,0.42,13.29,47.84626,-54.09684
2020-03-25 19:49:01+00:00,203.2465,0.47,13.29,47.84626,-54.09684
2020-03-25 19:59:01+00:00,210.5265,0.4,13.29,47.84626,-54.09684
2020-03-25 20:09:01+00:00,222.5214,0.41,13.29,47.84626,-54.09684
2020-03-25 20:19:01+00:00,231.0314,0.4,13.13,47.84626,-54.09684
2020-03-25 20:29:01+00:00,237.9181,0.46,13.13,47.84626,-54.09684
2020-03-25 20:39:01+00:00,242.2864,0.43,13.13,47.84626,-54.09684
2020-03-25 20:49:01+00:00,248.2381,0.4,13.13,47.84626,-54.09684
2020-03-25 20:59:01+00:00,252.9748,0.43,13.13,47.84626,-54.09684
2020-03-25 21:09:01+00:00,256.9581,0.45,13.13,47.84626,-54.09684
2020-03-25 21:19:01+00:00,260.7747,0.45,12.97,47.84626,-54.09684
2020-03-25 21:29:01+00:00,266.7397,0.44,12.97,47.84626,-54.09684
2020-03-25 21:39:01+00:00,268.9681,0.3,12.97,47.84626,-54.09684
2020-03-25 21:49:01+00:00,272.8564,0.2,12.97,47.84626,-54.09684
2020-03-25 21:59:01+00:00,278.858,0.2,12.97,47.84626,-54.09684
2020-03-25 22:09:01+00:00,284.7164,0.3,12.97,47.84626,-54.09684
2020-03-25 22:19:01+00:00,286.498,0.3,12.73,47.84626,-54.09684
2020-03-25 22:29:01+00:00,295.8214,0.3,12.73,47.84626,-54.09684
2020-03-25 22:39:01+00:00,306.403,0.3,12.73,47.84626,-54.09684
2020-03-25 22:49:01+00:00,313.8446,0.3,12.73,47.84626,-54.09684
2020-03-25 22:59:01+00:00,320.243,0.3,12.73,47.84626,-54.09684
2020-03-25 23:09:01+00:00,331.8179,0.3,12.73,47.84626,-54.09684
2020-03-25 23:19:01+00:00,339.1029,0.3,12.65,47.84626,-54.09684
2020-03-25 23:29:01+00:00,345.73800000000006,0.2,12.65,47.84626,-54.09684
2020-03-25 23:39:01+00:00,357.3013,0.2,12.65,47.84626,-54.09684
2020-03-25 23:49:01+00:00,362.2863,0.27,12.65,47.84626,-54.09684
2020-03-25 23:59:01+00:00,362.5496,0.29,12.65,47.84626,-54.09684
